Weather History for Clintonville, WI

Change the Weather History Date:

Thursday, November 14, 2013

  Actual Average Record
Temperature  
Mean Temperature 39 °F -  
Max Temperature 48 °F 40 °F 65 °F (1958)
Min Temperature 30 °F 24 °F 0 °F (1986)
Degree Days  
Heating Degree Days 26    
Moisture  
Dew Point 26 °F    
Average Humidity 64    
Maximum Humidity 93    
Minimum Humidity 46    
Precipitation  
Precipitation 0.00 in - - ()
Sea Level Pressure  
Sea Level Pressure 29.85 in    
Wind  
Wind Speed 7 mph (SW)    
Max Wind Speed 12 mph    
Max Gust Speed 16 mph    
Visibility 10 miles    
Events Rain    
Averages and records for this station are not official NWS values.
T = Trace of Precipitation, MM = Missing Value Source: NWS Daily Summary

Daily Weather History Graph

Daily Weather History Graph

Search for Another Location

Airport:

Trip Planner

Search our weather history database for the weather conditions in past years. The results will help you decide how hot, cold, wet, or windy it might be!

Date:

Astronomy

Nov. 14, 2013 Rise Set
Actual Time 6:50 AM CST 4:27 PM CST
Civil Twilight 6:19 AM CST 4:59 PM CST
Nautical Twilight 5:43 AM CST 5:34 PM CST
Astronomical Twilight 5:09 AM CST 6:08 PM CST
Moon 2:54 PM CST (11/14) 3:39 AM CST (11/14)
Length of Visible Light 10h 40m
Length of Day
9h 37m
Waxing Gibbous, 92% of the Moon is Illuminated
Nov 14
Waxing Gibbous
Nov 17
Full
Nov 25
Last Quarter
Dec 2
New
Dec 9
First Quarter

Hourly Weather History & Observations

Time (CST) Temp. Windchill Dew Point Humidity Pressure Visibility Wind Dir Wind Speed Gust Speed Precip Events Conditions
12:15 AM 35.6 °F 29.2 °F 17.6 °F 48% 29.92 in 10.0 mi SW 8.1 mph - N/A   Clear
12:35 AM 35.6 °F 29.9 °F 17.6 °F 48% 29.91 in 10.0 mi SW 6.9 mph - N/A   Clear
12:55 AM 33.8 °F 26.4 °F 17.6 °F 52% 29.91 in 10.0 mi SW 9.2 mph - N/A   Clear
1:15 AM 35.6 °F 28.6 °F 17.6 °F 48% 29.91 in 10.0 mi WSW 9.2 mph - N/A   Clear
1:35 AM 35.6 °F 28.6 °F 17.6 °F 48% 29.90 in 10.0 mi SW 9.2 mph - N/A   Clear
1:55 AM 33.8 °F 26.4 °F 17.6 °F 52% 29.90 in 10.0 mi SW 9.2 mph - N/A   Clear
2:15 AM 33.8 °F 26.4 °F 17.6 °F 52% 29.90 in 10.0 mi SW 9.2 mph - N/A   Clear
2:35 AM 33.8 °F 27.0 °F 17.6 °F 52% 29.89 in 10.0 mi SW 8.1 mph - N/A   Clear
2:55 AM 32.0 °F 25.6 °F 19.4 °F 60% 29.89 in 10.0 mi SSW 6.9 mph - N/A   Clear
3:15 AM 32.0 °F 25.6 °F 19.4 °F 60% 29.89 in 10.0 mi SSW 6.9 mph - N/A   Clear
3:35 AM 32.0 °F 26.4 °F 19.4 °F 60% 29.89 in 10.0 mi SW 5.8 mph - N/A   Clear
3:55 AM 32.0 °F 26.4 °F 19.4 °F 60% 29.88 in 10.0 mi SSW 5.8 mph - N/A   Clear
4:15 AM 30.2 °F 25.4 °F 19.4 °F 64% 29.88 in 10.0 mi South 4.6 mph - N/A   Clear
4:35 AM 30.2 °F 25.4 °F 19.4 °F 64% 29.89 in 10.0 mi SSW 4.6 mph - N/A   Clear
4:55 AM 30.2 °F 24.3 °F 19.4 °F 64% 29.89 in 10.0 mi SSW 5.8 mph - N/A   Clear
5:15 AM 32.0 °F 25.6 °F 19.4 °F 60% 29.88 in 10.0 mi SSW 6.9 mph - N/A   Clear
5:35 AM 30.2 °F 24.3 °F 19.4 °F 64% 29.89 in 10.0 mi SSW 5.8 mph - N/A   Clear
5:55 AM 32.0 °F 26.4 °F 19.4 °F 60% 29.88 in 10.0 mi SSW 5.8 mph - N/A   Clear
6:15 AM 32.0 °F 25.6 °F 21.2 °F 64% 29.88 in 10.0 mi SW 6.9 mph - N/A   Clear
6:35 AM 32.0 °F 25.6 °F 21.2 °F 64% 29.88 in 10.0 mi SW 6.9 mph - N/A   Clear
6:55 AM 32.0 °F 25.6 °F 21.2 °F 64% 29.88 in 10.0 mi SSW 6.9 mph - N/A   Clear
7:15 AM 32.0 °F 27.5 °F 21.2 °F 64% 29.87 in 10.0 mi SSW 4.6 mph - N/A   Clear
7:35 AM 32.0 °F 25.6 °F 21.2 °F 64% 29.88 in 10.0 mi SSW 6.9 mph - N/A   Clear
7:55 AM 32.0 °F 25.6 °F 21.2 °F 64% 29.87 in 10.0 mi SSW 6.9 mph - N/A   Clear
8:15 AM 33.8 °F 27.0 °F 21.2 °F 60% 29.88 in 10.0 mi SW 8.1 mph - N/A   Clear
8:35 AM 33.8 °F 27.7 °F 21.2 °F 60% 29.87 in 10.0 mi WSW 6.9 mph - N/A   Clear
8:55 AM 33.8 °F 26.4 °F 21.2 °F 60% 29.87 in 10.0 mi WSW 9.2 mph - N/A   Clear
9:15 AM 35.6 °F 29.9 °F 21.2 °F 56% 29.87 in 10.0 mi SW 6.9 mph - N/A   Clear
9:35 AM 37.4 °F 29.8 °F 23.0 °F 56% 29.87 in 10.0 mi SW 11.5 mph - N/A   Clear
9:55 AM 37.4 °F 30.8 °F 23.0 °F 56% 29.86 in 10.0 mi SW 9.2 mph - N/A   Clear
10:15 AM 39.2 °F 33.0 °F 23.0 °F 52% 29.86 in 10.0 mi SW 9.2 mph - N/A   Clear
10:35 AM 39.2 °F 33.6 °F 23.0 °F 52% 29.86 in 10.0 mi SW 8.1 mph - N/A   Clear
10:55 AM 41.0 °F 34.3 °F 23.0 °F 49% 29.84 in 10.0 mi SW 11.5 mph - N/A   Clear
11:15 AM 41.0 °F 34.3 °F 24.8 °F 53% 29.85 in 10.0 mi SW 11.5 mph - N/A   Clear
11:35 AM 42.8 °F 36.6 °F 24.8 °F 49% 29.84 in 10.0 mi SW 11.5 mph 16.1 mph N/A   Clear
11:55 AM 44.6 °F 39.2 °F 26.6 °F 49% 29.83 in 10.0 mi WSW 10.4 mph - N/A   Scattered Clouds
12:15 PM 44.6 °F 39.2 °F 26.6 °F 49% 29.82 in 10.0 mi SW 10.4 mph - N/A   Scattered Clouds
12:35 PM 46.4 °F 42.9 °F 26.6 °F 46% 29.82 in 10.0 mi SW 6.9 mph - N/A   Scattered Clouds
12:55 PM 46.4 °F 41.9 °F 26.6 °F 46% 29.81 in 10.0 mi WSW 9.2 mph - N/A   Scattered Clouds
1:15 PM 46.4 °F 41.9 °F 28.4 °F 50% 29.81 in 10.0 mi SW 9.2 mph - N/A   Overcast
1:35 PM 46.4 °F 41.5 °F 28.4 °F 50% 29.81 in 10.0 mi WSW 10.4 mph - N/A   Overcast
1:55 PM 46.4 °F 42.4 °F 28.4 °F 50% 29.81 in 10.0 mi WSW 8.1 mph - N/A   Overcast
2:15 PM 48.2 °F - 28.4 °F 46% 29.81 in 10.0 mi WSW 6.9 mph - N/A   Overcast
2:35 PM 48.2 °F - 28.4 °F 46% 29.81 in 10.0 mi WSW 6.9 mph - N/A   Overcast
2:55 PM 46.4 °F 42.9 °F 30.2 °F 53% 29.82 in 10.0 mi WSW 6.9 mph - N/A   Overcast
3:15 PM 46.4 °F 42.4 °F 30.2 °F 53% 29.82 in 10.0 mi WSW 8.1 mph - N/A   Overcast
3:35 PM 46.4 °F 43.5 °F 30.2 °F 53% 29.82 in 10.0 mi WSW 5.8 mph - N/A   Light Drizzle
3:55 PM 44.6 °F 42.2 °F 32.0 °F 61% 29.82 in 10.0 mi WSW 4.6 mph - N/A Rain Light Rain
4:15 PM 42.8 °F - 32.0 °F 66% 29.82 in 10.0 mi Calm Calm - N/A Rain Light Rain
4:35 PM 41.0 °F - 37.4 °F 87% 29.82 in 10.0 mi Calm Calm - N/A   Light Drizzle
4:55 PM 41.0 °F 37.1 °F 37.4 °F 87% 29.81 in 10.0 mi South 5.8 mph - N/A Rain Rain
5:15 PM 41.0 °F - 35.6 °F 81% 29.82 in 10.0 mi Calm Calm - N/A Rain Light Rain
5:35 PM 41.0 °F 39.0 °F 35.6 °F 81% 29.82 in 10.0 mi SW 3.5 mph - N/A   Light Drizzle
5:55 PM 39.2 °F 35.9 °F 35.6 °F 87% 29.82 in 10.0 mi South 4.6 mph - N/A   Overcast
6:15 PM 39.2 °F 37.0 °F 33.8 °F 81% 29.82 in 10.0 mi SSW 3.5 mph - N/A   Overcast
6:35 PM 41.0 °F 37.1 °F 33.8 °F 76% 29.82 in 10.0 mi South 5.8 mph - N/A   Overcast
6:55 PM 41.0 °F 37.1 °F 32.0 °F 70% 29.83 in 10.0 mi SSW 5.8 mph - N/A   Overcast
7:15 PM 41.0 °F 36.4 °F 32.0 °F 70% 29.83 in 10.0 mi SSW 6.9 mph - N/A   Overcast
7:35 PM 41.0 °F 36.4 °F 32.0 °F 70% 29.83 in 10.0 mi SSW 6.9 mph - N/A   Scattered Clouds
7:55 PM 41.0 °F 36.4 °F 32.0 °F 70% 29.83 in 10.0 mi SSW 6.9 mph - N/A   Mostly Cloudy
8:15 PM 39.2 °F 34.2 °F 32.0 °F 75% 29.83 in 10.0 mi SSW 6.9 mph - N/A   Scattered Clouds
8:35 PM 37.4 °F 32.1 °F 32.0 °F 81% 29.84 in 10.0 mi SSW 6.9 mph - N/A   Clear
8:55 PM 37.4 °F 33.8 °F 30.2 °F 75% 29.84 in 10.0 mi SSW 4.6 mph - N/A   Clear
9:15 PM 37.4 °F - 30.2 °F 75% 29.84 in 10.0 mi Calm Calm - N/A   Clear
9:35 PM 35.6 °F - 30.2 °F 81% 29.84 in 10.0 mi Calm Calm - N/A   Scattered Clouds
9:55 PM 33.8 °F 30.8 °F 30.2 °F 87% 29.84 in 10.0 mi South 3.5 mph - N/A   Mostly Cloudy
10:15 PM 32.0 °F - 30.2 °F 93% 29.84 in 10.0 mi Calm Calm - N/A   Scattered Clouds
10:35 PM 32.0 °F 28.7 °F 28.4 °F 87% 29.83 in 10.0 mi SSE 3.5 mph - N/A   Clear
10:55 PM 32.0 °F 28.7 °F 30.2 °F 93% 29.83 in 10.0 mi South 3.5 mph - N/A   Clear
11:15 PM 33.8 °F - 28.4 °F 81% 29.82 in 10.0 mi Calm Calm - N/A   Clear
11:35 PM 32.0 °F - 30.2 °F 93% 29.82 in 10.0 mi Calm Calm - N/A   Clear
11:55 PM 33.8 °F - 28.4 °F 81% 29.82 in 10.0 mi Calm Calm - N/A   Clear